Regional Weather Roundup
Issued by NWS

Home | Current Version | Previous Version | Text Only | Print | Product List | Glossary On
Versions: 1 2 3 4 5 6 7 8 9 10 11 12 13 14 15 16 17 18 19 20 21 22 23 24 25 26 27 28 29 30 31 32 33 34 35 36 37 38 39 40 41 42 43 44 45 46 47 48 49 50
000
ASUS46 KSTO 240715
RWRCA

NORTHERN AND CENTRAL CA REGIONAL WEATHER ROUNDUP
NATIONAL WEATHER SERVICE SACRAMENTO CA
1100 PM PST THU FEB 23 2017

NOTE: FAIR INDICATES FEW OR NO CLOUDS BELOW 12,000 FEET WITH NO
SIGNIFICANT WEATHER AND/OR OBSTRUCTIONS TO VISIBILITY.

CAZ001-003-240800-
NORTHWEST AREA

CITY           SKY/WX    TMP DP  RH WIND       PRES   REMARKS
CRESCENT CITY  CLEAR     36  33  89 E6        30.29S WCI  31
UKIAH          CLEAR     36  33  89 CALM      30.23R
$$

CAZ006-505>513-240800-
BAY AREA

CITY           SKY/WX    TMP DP  RH WIND       PRES   REMARKS
SANTA ROSA     CLEAR     37  33  85 SE3       30.21R
SAN RAFAEL     N/A       44  MM  MM MISG
NAPA           CLEAR     39  35  86 SE5       30.22R
CONCORD        CLEAR     42  36  79 SE5       30.23R
OAKLAND CITY   N/A      MM  MM  MM MISG
OAKLAND        PTCLDY    43  40  89 CALM      30.23R
SAN FRAN CITY  N/A       46  MM  69 MISG
SAN FRAN ARPT  CLEAR     47  36  65 W9        30.23R
LIVERMORE      CLEAR     37  32  82 E3        30.22R
HAYWARD        CLEAR     43  34  70 E5        30.23R
REDWOOD CITY   N/A       40  MM  86 MISG
MOFFETT ARPT   CLEAR     44  35  70 CALM      30.24S
SAN JOSE ARPT  PTCLDY    43  34  70 SE5       30.24R
$$
CAZ034-037-514>518-240800-
CENTRAL COAST

CITY           SKY/WX    TMP DP  RH WIND       PRES   REMARKS
WATSONVILLE    CLEAR     37  35  92 CALM      30.24R
SALINAS        CLEAR     39  35  86 E5        30.24R
MONTEREY       CLEAR     41  36  82 E6        30.24S
SAN LUIS OBISP CLEAR     46  32  58 N6        30.20S
SANTA MARIA    CLEAR     39  37  92 CALM      30.20R
$$
CAZ015-016-240800-
NORTHERN SACRAMENTO VALLEY

CITY           SKY/WX    TMP DP  RH WIND       PRES   REMARKS
REDDING        CLEAR     38  29  70 CALM      30.20R
RED BLUFF      MOCLDY    44  28  53 N6        30.21R
OROVILLE       CLEAR     42  33  70 E6        30.22R
$$
CAZ016>018-240800-
SOUTHERN SACRAMENTO VALLEY

CITY           SKY/WX    TMP DP  RH WIND       PRES   REMARKS
AUBURN         CLEAR     34  32  93 E7        30.18S WCI  28
BEALE AFB      CLEAR     39  33  79 CALM      30.20R
LINCOLN        FAIR      36  34  93 E8        30.20S WCI  29
MARYSVILLE     CLEAR     40  34  79 E6        30.22R
SAC INTL ARPT  CLEAR     43  35  73 SE5       30.20R
MATHER AIRPORT CLEAR     36  32  87 SE6       30.22R WCI  31
DOWNTOWN SAC   N/A       42  MM  MM MISG
SAC EXEC ARPT  CLEAR     37  34  89 CALM      30.21S
VACAVILLE      CLEAR     37  35  92 CALM      30.22R
TRAVIS AFB     CLEAR     40  37  91 CALM      30.20R
$$
CAZ019>021-240800-
SAN JOAQUIN VALLEY

CITY           SKY/WX    TMP DP  RH WIND       PRES   REMARKS
STOCKTON       CLEAR     40  35  83 CALM      30.21R
MODESTO        CLEAR     43  32  65 CALM      30.22R
MERCED         CLEAR     38  32  79 NW7       30.21R WCI  33
LEMOORE        CLEAR     34  30  85 NW8       30.22R WCI  27
FRESNO         CLEAR     41  33  73 W5        30.21
HANFORD        CLEAR     39  33  79 NW6       30.22R WCI  35
PORTERVILLE    CLEAR     37  34  89 SE5       30.21R WCI  33
BAKERSFIELD    CLOUDY    42  35  76 CALM      30.20R
$$
CAZ011-012-071-240800-
NORTHERN MOUNTAINS

CITY           SKY/WX    TMP DP  RH WIND       PRES   REMARKS
YREKA          CLEAR     25  20  81 CALM      30.19S
MOUNT SHASTA   PTCLDY    26  18  71 CALM      30.13R
ALTURAS        MOCLDY    13  12  96 CALM      30.10R FOG
$$
CAZ011-012-071-240800-
SIERRA NEVADA MTNS

CITY           SKY/WX    TMP DP  RH WIND       PRES   REMARKS
BLUE CANYON    CLEAR     22  15  75 NE3       30.06R
TRUCKEE        CLOUDY    14  12  92 CALM      30.04S
TAHOE VLY ARPT FAIR      11   8  88 S5        30.01S WCI   3
MAMMOTH LAKES  FAIR      10   4  79 S3        29.97R
$$



USA.gov is the U.S. government's official web portal to all federal, state and local government web resources and services.